Time,TemperatureF,DewpointF,PressureIn,WindDirection,WindDirectionDegrees,WindSpeedMPH,WindSpeedGustMPH,Humidity,HourlyPrecipIn,Conditions,Clouds,dailyrainin,SoftwareType,DateUTC
2013-07-01 00:01:00,57.2,29.8,27.08,NE,52,0.0,0.0,35,0.00,,---,0.00,VWS V14.01,2013-07-01 05:01:00,
2013-07-01 00:06:00,57.6,30.1,27.08,NE,52,0.0,0.0,35,0.00,,---,0.00,VWS V14.01,2013-07-01 05:06:00,
2013-07-01 00:11:00,57.9,30.5,27.08,NE,52,0.0,0.0,35,0.00,,---,0.00,VWS V14.01,2013-07-01 05:11:00,
2013-07-01 00:16:00,57.9,30.5,27.08,NE,52,0.0,0.0,35,0.00,,---,0.00,VWS V14.01,2013-07-01 05:16:00,
2013-07-01 00:21:00,58.1,30.6,27.08,NE,52,0.0,0.0,35,0.00,,---,0.00,VWS V14.01,2013-07-01 05:21:00,
2013-07-01 00:26:00,58.3,30.8,27.08,NE,52,2.2,3.1,35,0.00,,---,0.00,VWS V14.01,2013-07-01 05:26:00,
2013-07-01 00:31:00,58.1,30.6,27.08,NE,52,0.0,0.0,35,0.00,,---,0.00,VWS V14.01,2013-07-01 05:31:00,
2013-07-01 00:36:00,58.5,30.9,27.08,NE,52,0.0,2.7,35,0.00,,---,0.00,VWS V14.01,2013-07-01 05:36:00,
2013-07-01 00:41:00,57.2,29.8,27.08,NE,52,0.0,0.0,35,0.00,,---,0.00,VWS V14.01,2013-07-01 05:41:00,
2013-07-01 00:46:00,56.7,29.3,27.08,NE,52,0.0,0.0,35,0.00,,---,0.00,VWS V14.01,2013-07-01 05:46:00,
2013-07-01 00:51:00,56.1,28.9,27.08,NE,52,0.0,0.0,35,0.00,,---,0.00,VWS V14.01,2013-07-01 05:51:00,
2013-07-01 00:56:00,55.8,28.5,27.08,NE,52,0.0,0.0,35,0.00,,---,0.00,VWS V14.01,2013-07-01 05:56:00,
2013-07-01 01:01:00,55.2,28.8,27.11,NE,52,0.0,0.0,36,0.00,,---,0.00,VWS V14.01,2013-07-01 06:01:00,
2013-07-01 01:06:00,55.0,28.6,27.11,NE,52,0.0,0.0,36,0.00,,---,0.00,VWS V14.01,2013-07-01 06:06:00,
2013-07-01 01:11:00,55.2,28.8,27.11,NE,52,0.0,0.0,36,0.00,,---,0.00,VWS V14.01,2013-07-01 06:11:00,
2013-07-01 01:16:00,55.2,28.8,27.11,NE,52,0.0,0.0,36,0.00,,---,0.00,VWS V14.01,2013-07-01 06:16:00,
2013-07-01 01:21:00,54.7,28.3,27.11,NE,52,0.0,0.0,36,0.00,,---,0.00,VWS V14.01,2013-07-01 06:21:00,
2013-07-01 01:26:00,55.0,28.6,27.11,NE,52,0.0,0.0,36,0.00,,---,0.00,VWS V14.01,2013-07-01 06:26:00,
2013-07-01 01:31:00,54.9,28.4,27.11,NE,52,0.0,0.0,36,0.00,,---,0.00,VWS V14.01,2013-07-01 06:31:00,
2013-07-01 01:36:00,54.9,28.4,27.11,NE,52,0.0,0.0,36,0.00,,---,0.00,VWS V14.01,2013-07-01 06:36:00,
2013-07-01 01:41:00,54.9,28.4,27.11,NE,52,0.0,0.0,36,0.00,,---,0.00,VWS V14.01,2013-07-01 06:41:00,
2013-07-01 01:46:00,54.7,28.3,27.11,NE,52,0.0,0.0,36,0.00,,---,0.00,VWS V14.01,2013-07-01 06:46:00,
2013-07-01 01:51:00,54.5,28.1,27.11,NE,52,0.0,0.0,36,0.00,,---,0.00,VWS V14.01,2013-07-01 06:51:00,
2013-07-01 01:56:00,54.5,28.1,27.11,NE,52,0.0,0.0,36,0.00,,---,0.00,VWS V14.01,2013-07-01 06:56:00,
2013-07-01 02:01:00,54.7,28.3,27.11,NE,52,0.0,0.0,36,0.00,,---,0.00,VWS V14.01,2013-07-01 07:01:00,
2013-07-01 02:06:00,54.5,28.1,27.11,NE,52,0.0,0.0,36,0.00,,---,0.00,VWS V14.01,2013-07-01 07:06:00,
2013-07-01 02:11:00,54.1,27.8,27.11,NE,52,0.0,0.0,36,0.00,,---,0.00,VWS V14.01,2013-07-01 07:11:00,
2013-07-01 02:16:00,54.1,27.8,27.11,NE,52,0.0,0.0,36,0.00,,---,0.00,VWS V14.01,2013-07-01 07:16:00,
2013-07-01 02:21:00,54.0,27.6,27.11,North,353,2.2,2.7,36,0.00,,---,0.00,VWS V14.01,2013-07-01 07:21:00,
2013-07-01 02:26:00,53.8,27.5,27.11,North,353,0.0,2.2,36,0.00,,---,0.00,VWS V14.01,2013-07-01 07:26:00,
2013-07-01 02:31:00,54.0,27.6,27.11,North,353,2.2,2.2,36,0.00,,---,0.00,VWS V14.01,2013-07-01 07:31:00,
2013-07-01 02:36:00,53.6,27.3,27.11,North,353,2.2,2.2,36,0.00,,---,0.00,VWS V14.01,2013-07-01 07:36:00,
2013-07-01 02:41:00,53.4,27.8,27.11,North,353,0.0,0.0,37,0.00,,---,0.00,VWS V14.01,2013-07-01 07:41:00,
2013-07-01 02:46:00,53.2,27.7,27.11,North,353,0.0,0.0,37,0.00,,---,0.00,VWS V14.01,2013-07-01 07:46:00,
2013-07-01 02:51:00,53.2,27.7,27.11,North,353,0.0,0.0,37,0.00,,---,0.00,VWS V14.01,2013-07-01 07:51:00,
2013-07-01 02:56:00,53.2,27.7,27.11,North,353,0.0,0.0,37,0.00,,---,0.00,VWS V14.01,2013-07-01 07:56:00,
2013-07-01 03:02:00,53.4,27.8,27.11,North,353,0.0,0.0,37,0.00,,---,0.00,VWS V14.01,2013-07-01 08:02:00,
2013-07-01 03:07:00,53.4,27.8,27.11,North,353,0.0,0.0,37,0.00,,---,0.00,VWS V14.01,2013-07-01 08:07:00,
2013-07-01 03:12:00,53.1,27.5,27.11,North,353,0.0,0.0,37,0.00,,---,0.00,VWS V14.01,2013-07-01 08:12:00,
2013-07-01 03:17:00,52.9,27.3,27.11,North,353,0.0,0.0,37,0.00,,---,0.00,VWS V14.01,2013-07-01 08:17:00,
2013-07-01 03:22:00,52.7,27.2,27.11,North,353,0.0,0.0,37,0.00,,---,0.00,VWS V14.01,2013-07-01 08:22:00,
2013-07-01 03:27:00,52.5,27.0,27.11,North,353,0.0,0.0,37,0.00,,---,0.00,VWS V14.01,2013-07-01 08:27:00,
2013-07-01 03:32:00,52.3,26.9,27.11,North,353,0.0,0.0,37,0.00,,---,0.00,VWS V14.01,2013-07-01 08:32:00,
2013-07-01 03:37:00,52.2,26.7,27.11,North,353,0.0,0.0,37,0.00,,---,0.00,VWS V14.01,2013-07-01 08:37:00,
2013-07-01 03:42:00,52.2,26.7,27.11,North,353,0.0,0.0,37,0.00,,---,0.00,VWS V14.01,2013-07-01 08:42:00,
2013-07-01 03:48:00,52.0,26.5,27.11,North,353,0.0,0.0,37,0.00,,---,0.00,VWS V14.01,2013-07-01 08:48:00,
2013-07-01 03:53:00,52.0,26.5,27.11,North,353,0.0,0.0,37,0.00,,---,0.00,VWS V14.01,2013-07-01 08:53:00,
2013-07-01 03:57:00,52.0,26.5,27.11,North,353,0.0,0.0,37,0.00,,---,0.00,VWS V14.01,2013-07-01 08:57:00,
2013-07-01 04:02:00,51.8,26.4,27.11,North,353,0.0,0.0,37,0.00,,---,0.00,VWS V14.01,2013-07-01 09:02:00,
2013-07-01 04:07:00,51.8,26.4,27.11,North,353,0.0,0.0,37,0.00,,---,0.00,VWS V14.01,2013-07-01 09:07:00,
2013-07-01 04:13:00,52.0,26.5,27.11,North,353,0.0,0.0,37,0.00,,---,0.00,VWS V14.01,2013-07-01 09:13:00,
2013-07-01 04:18:00,52.2,26.7,27.11,North,353,0.0,0.0,37,0.00,,---,0.00,VWS V14.01,2013-07-01 09:18:00,
2013-07-01 04:23:00,51.8,26.4,27.11,North,353,0.0,0.0,37,0.00,,---,0.00,VWS V14.01,2013-07-01 09:23:00,
2013-07-01 04:28:00,52.2,26.7,27.11,North,353,2.7,2.7,37,0.00,,---,0.00,VWS V14.01,2013-07-01 09:28:00,
2013-07-01 04:33:00,52.2,26.7,27.11,North,353,2.7,2.7,37,0.00,,---,0.00,VWS V14.01,2013-07-01 09:33:00,
2013-07-01 04:38:00,51.8,26.4,27.11,North,353,2.2,2.2,37,0.00,,---,0.00,VWS V14.01,2013-07-01 09:38:00,
2013-07-01 04:42:00,51.8,26.4,27.11,NW,322,2.2,2.2,37,0.00,,---,0.00,VWS V14.01,2013-07-01 09:42:00,
2013-07-01 04:48:00,51.8,26.4,27.11,NW,321,2.7,2.7,37,0.00,,---,0.00,VWS V14.01,2013-07-01 09:48:00,
2013-07-01 04:53:00,51.8,26.4,27.11,North,353,3.6,3.6,37,0.00,,---,0.00,VWS V14.01,2013-07-01 09:53:00,
2013-07-01 04:57:00,52.0,26.5,27.11,NNW,340,3.6,3.6,37,0.00,,---,0.00,VWS V14.01,2013-07-01 09:57:00,
2013-07-01 05:03:00,51.8,26.4,27.11,NNW,335,2.7,2.7,37,0.00,,---,0.00,VWS V14.01,2013-07-01 10:03:00,
2013-07-01 05:08:00,51.8,26.4,27.11,NNW,341,2.7,2.7,37,0.00,,---,0.00,VWS V14.01,2013-07-01 10:08:00,
2013-07-01 05:13:00,51.4,26.0,27.11,NNW,341,0.0,0.0,37,0.00,,---,0.00,VWS V14.01,2013-07-01 10:13:00,
2013-07-01 05:18:00,51.3,25.9,27.11,NNW,341,0.0,0.0,37,0.00,,---,0.00,VWS V14.01,2013-07-01 10:18:00,
2013-07-01 05:23:00,51.3,25.9,27.11,North,353,0.0,0.0,37,0.00,,---,0.00,VWS V14.01,2013-07-01 10:23:00,
2013-07-01 05:28:00,51.3,25.9,27.11,North,353,2.7,2.7,37,0.00,,---,0.00,VWS V14.01,2013-07-01 10:28:00,
2013-07-01 05:33:00,51.4,26.0,27.11,North,0,3.1,3.1,37,0.00,,---,0.00,VWS V14.01,2013-07-01 10:33:00,
2013-07-01 05:38:00,51.4,26.0,27.11,NNW,344,2.2,2.2,37,0.00,,---,0.00,VWS V14.01,2013-07-01 10:38:00,
2013-07-01 05:43:00,50.9,25.6,27.11,NNW,344,2.7,2.7,37,0.00,,---,0.00,VWS V14.01,2013-07-01 10:43:00,
2013-07-01 05:48:00,50.9,25.6,27.11,NNW,344,2.7,3.1,37,0.00,,---,0.00,VWS V14.01,2013-07-01 10:48:00,
2013-07-01 05:53:00,50.7,25.4,27.11,NNW,344,2.7,2.7,37,0.00,,---,0.00,VWS V14.01,2013-07-01 10:53:00,
2013-07-01 05:58:00,50.7,25.4,27.11,North,350,3.1,3.1,37,0.00,,---,0.00,VWS V14.01,2013-07-01 10:58:00,
2013-07-01 06:03:00,50.9,25.6,27.11,NNE,29,2.2,2.7,37,0.00,,---,0.00,VWS V14.01,2013-07-01 11:03:00,
2013-07-01 06:08:00,50.5,25.2,27.11,NNE,28,2.2,2.2,37,0.00,,---,0.00,VWS V14.01,2013-07-01 11:08:00,
2013-07-01 06:13:00,50.2,24.9,27.14,North,0,2.2,2.2,37,0.00,,---,0.00,VWS V14.01,2013-07-01 11:13:00,
2013-07-01 06:18:00,50.0,24.8,27.14,North,0,2.2,2.2,37,0.00,,---,0.00,VWS V14.01,2013-07-01 11:18:00,
2013-07-01 06:23:00,49.8,25.2,27.14,North,5,0.0,0.0,38,0.00,,---,0.00,VWS V14.01,2013-07-01 11:23:00,
2013-07-01 06:28:00,49.6,25.1,27.14,North,5,0.0,0.0,38,0.00,,---,0.00,VWS V14.01,2013-07-01 11:28:00,
2013-07-01 06:33:00,49.5,24.9,27.14,North,5,0.0,0.0,38,0.00,,---,0.00,VWS V14.01,2013-07-01 11:33:00,
2013-07-01 06:38:00,49.5,24.9,27.14,North,5,0.0,0.0,38,0.00,,---,0.00,VWS V14.01,2013-07-01 11:38:00,
2013-07-01 06:43:00,50.0,25.4,27.14,North,5,0.0,0.0,38,0.00,,---,0.00,VWS V14.01,2013-07-01 11:43:00,
2013-07-01 06:48:00,51.6,26.2,27.14,North,353,2.2,2.7,37,0.00,,---,0.00,VWS V14.01,2013-07-01 11:48:00,
2013-07-01 06:53:00,52.5,27.0,27.14,North,353,2.7,2.7,37,0.00,,---,0.00,VWS V14.01,2013-07-01 11:53:00,
2013-07-01 06:58:00,53.8,27.5,27.14,North,353,2.2,2.7,36,0.00,,---,0.00,VWS V14.01,2013-07-01 11:58:00,
2013-07-01 07:03:00,54.1,27.8,27.14,North,353,2.7,2.7,36,0.00,,---,0.00,VWS V14.01,2013-07-01 12:03:00,
2013-07-01 07:08:00,55.2,28.8,27.14,NNW,346,0.0,2.7,36,0.00,,---,0.00,VWS V14.01,2013-07-01 12:08:00,
2013-07-01 07:13:00,55.2,28.8,27.14,NNW,346,0.0,0.0,36,0.00,,---,0.00,VWS V14.01,2013-07-01 12:13:00,
2013-07-01 07:18:00,56.3,29.0,27.14,NNW,346,0.0,0.0,35,0.00,,---,0.00,VWS V14.01,2013-07-01 12:18:00,
2013-07-01 07:23:00,57.6,30.1,27.14,NNW,346,0.0,0.0,35,0.00,,---,0.00,VWS V14.01,2013-07-01 12:23:00,
2013-07-01 07:28:00,58.8,31.2,27.14,NNW,348,0.0,0.0,35,0.00,,---,0.00,VWS V14.01,2013-07-01 12:28:00,
2013-07-01 07:33:00,59.9,32.2,27.14,NNW,348,2.7,2.7,35,0.00,,---,0.00,VWS V14.01,2013-07-01 12:33:00,
2013-07-01 07:38:00,60.4,32.7,27.14,NNW,346,2.7,2.7,35,0.00,,---,0.00,VWS V14.01,2013-07-01 12:38:00,
2013-07-01 07:43:00,61.3,32.8,27.14,NNW,346,0.0,0.0,34,0.00,,---,0.00,VWS V14.01,2013-07-01 12:43:00,
2013-07-01 07:48:00,62.2,33.5,27.14,NNW,345,0.0,0.0,34,0.00,,---,0.00,VWS V14.01,2013-07-01 12:48:00,
2013-07-01 07:53:00,62.6,33.9,27.14,NNW,345,0.0,0.0,34,0.00,,---,0.00,VWS V14.01,2013-07-01 12:53:00,
2013-07-01 07:58:00,63.0,34.2,27.14,NNW,345,0.0,0.0,34,0.00,,---,0.00,VWS V14.01,2013-07-01 12:58:00,
2013-07-01 08:03:00,63.1,34.3,27.14,NNW,345,0.0,0.0,34,0.00,,---,0.00,VWS V14.01,2013-07-01 13:03:00,
2013-07-01 08:08:00,64.2,35.3,27.14,NNW,330,0.0,0.0,34,0.00,,---,0.00,VWS V14.01,2013-07-01 13:08:00,
2013-07-01 08:13:00,66.4,36.4,27.14,NW,326,3.1,3.1,33,0.00,,---,0.00,VWS V14.01,2013-07-01 13:13:00,
2013-07-01 08:18:00,67.3,37.2,27.14,North,353,0.0,0.0,33,0.00,,---,0.00,VWS V14.01,2013-07-01 13:18:00,
2013-07-01 08:23:00,68.5,38.3,27.14,North,353,0.0,0.0,33,0.00,,---,0.00,VWS V14.01,2013-07-01 13:23:00,
2013-07-01 08:28:00,69.3,39.0,27.14,North,349,2.7,3.1,33,0.00,,---,0.00,VWS V14.01,2013-07-01 13:28:00,
2013-07-01 08:33:00,68.7,38.5,27.14,North,6,0.0,0.0,33,0.00,,---,0.00,VWS V14.01,2013-07-01 13:33:00,
2013-07-01 08:38:00,69.4,39.1,27.14,North,6,0.0,0.0,33,0.00,,---,0.00,VWS V14.01,2013-07-01 13:38:00,
2013-07-01 08:43:00,70.7,39.4,27.17,North,6,0.0,0.0,32,0.00,,---,0.00,VWS V14.01,2013-07-01 13:43:00,
2013-07-01 08:48:00,71.1,39.7,27.17,North,5,2.2,2.7,32,0.00,,---,0.00,VWS V14.01,2013-07-01 13:48:00,
2013-07-01 08:53:00,71.6,40.2,27.17,North,5,0.0,0.0,32,0.00,,---,0.00,VWS V14.01,2013-07-01 13:53:00,
2013-07-01 08:58:00,70.9,39.6,27.17,North,5,0.0,0.0,32,0.00,,---,0.00,VWS V14.01,2013-07-01 13:58:00,
2013-07-01 09:03:00,72.3,40.8,27.17,North,5,0.0,0.0,32,0.00,,---,0.00,VWS V14.01,2013-07-01 14:03:00,
2013-07-01 09:08:00,73.0,41.5,27.17,North,5,0.0,0.0,32,0.00,,---,0.00,VWS V14.01,2013-07-01 14:08:00,
2013-07-01 09:13:00,73.4,41.0,27.17,North,5,0.0,0.0,31,0.00,,---,0.00,VWS V14.01,2013-07-01 14:13:00,
2013-07-01 09:18:00,73.4,41.0,27.17,North,5,0.0,0.0,31,0.00,,---,0.00,VWS V14.01,2013-07-01 14:18:00,
2013-07-01 09:23:00,74.5,41.9,27.17,North,5,0.0,2.7,31,0.00,,---,0.00,VWS V14.01,2013-07-01 14:23:00,
2013-07-01 09:28:00,76.6,43.8,27.17,North,5,2.7,3.1,31,0.00,,---,0.00,VWS V14.01,2013-07-01 14:28:00,
2013-07-01 09:33:00,76.3,43.5,27.17,North,5,0.0,0.0,31,0.00,,---,0.00,VWS V14.01,2013-07-01 14:33:00,
2013-07-01 09:38:00,76.6,43.8,27.17,North,5,0.0,0.0,31,0.00,,---,0.00,VWS V14.01,2013-07-01 14:38:00,
2013-07-01 09:43:00,77.2,44.2,27.17,North,5,0.0,0.0,31,0.00,,---,0.00,VWS V14.01,2013-07-01 14:43:00,
2013-07-01 09:48:00,78.3,45.2,27.17,North,5,0.0,0.0,31,0.00,,---,0.00,VWS V14.01,2013-07-01 14:48:00,
2013-07-01 09:54:00,78.1,45.0,27.17,North,5,0.0,0.0,31,0.00,,---,0.00,VWS V14.01,2013-07-01 14:54:00,
2013-07-01 09:59:00,81.1,46.8,27.17,North,5,0.0,0.0,30,0.00,,---,0.00,VWS V14.01,2013-07-01 14:59:00,
2013-07-01 10:04:00,81.0,46.6,27.17,North,5,2.7,3.1,30,0.00,,---,0.00,VWS V14.01,2013-07-01 15:04:00,
2013-07-01 10:09:00,79.9,45.7,27.17,North,5,0.0,0.0,30,0.00,,---,0.00,VWS V14.01,2013-07-01 15:09:00,
2013-07-01 10:14:00,80.2,46.0,27.17,North,5,0.0,0.0,30,0.00,,---,0.00,VWS V14.01,2013-07-01 15:14:00,
2013-07-01 10:19:00,80.8,46.5,27.17,North,5,0.0,0.0,30,0.00,,---,0.00,VWS V14.01,2013-07-01 15:19:00,
2013-07-01 10:24:00,79.0,44.9,27.17,SW,228,2.2,2.2,30,0.00,,---,0.00,VWS V14.01,2013-07-01 15:24:00,
2013-07-01 10:29:00,79.7,45.6,27.14,NNE,28,0.0,0.0,30,0.00,,---,0.00,VWS V14.01,2013-07-01 15:29:00,
2013-07-01 10:34:00,81.9,47.4,27.14,NNE,29,0.0,0.0,30,0.00,,---,0.00,VWS V14.01,2013-07-01 15:34:00,
2013-07-01 10:39:00,82.2,47.7,27.14,North,353,0.0,2.7,30,0.00,,---,0.00,VWS V14.01,2013-07-01 15:39:00,
2013-07-01 10:44:00,79.0,44.9,27.14,West,277,0.0,2.2,30,0.00,,---,0.00,VWS V14.01,2013-07-01 15:44:00,
2013-07-01 10:49:00,80.8,46.5,27.14,NE,48,2.2,4.0,30,0.00,,---,0.00,VWS V14.01,2013-07-01 15:49:00,
2013-07-01 10:54:00,83.3,47.8,27.14,NE,46,5.8,5.8,29,0.00,,---,0.00,VWS V14.01,2013-07-01 15:54:00,
2013-07-01 10:59:00,80.1,45.9,27.14,SE,137,2.7,2.7,30,0.00,,---,0.00,VWS V14.01,2013-07-01 15:59:00,
2013-07-01 11:04:00,84.0,48.4,27.14,NNE,25,3.1,3.1,29,0.00,,---,0.00,VWS V14.01,2013-07-01 16:04:00,
2013-07-01 11:09:00,78.1,45.0,27.14,NE,44,2.7,4.0,31,0.00,,---,0.00,VWS V14.01,2013-07-01 16:09:00,
2013-07-01 11:14:00,75.9,43.1,27.14,NE,44,0.0,0.0,31,0.00,,---,0.00,VWS V14.01,2013-07-01 16:14:00,
2013-07-01 11:19:00,76.3,43.5,27.14,NE,44,2.7,3.6,31,0.00,,---,0.00,VWS V14.01,2013-07-01 16:19:00,
2013-07-01 11:24:00,78.4,45.3,27.14,NE,49,2.2,3.6,31,0.00,,---,0.00,VWS V14.01,2013-07-01 16:24:00,
2013-07-01 11:29:00,81.0,46.6,27.14,North,0,2.2,3.1,30,0.00,,---,0.00,VWS V14.01,2013-07-01 16:29:00,
2013-07-01 11:34:00,81.9,47.4,27.14,North,0,0.0,0.0,30,0.00,,---,0.00,VWS V14.01,2013-07-01 16:34:00,
2013-07-01 11:39:00,81.0,46.6,27.14,North,357,0.0,0.0,30,0.00,,---,0.00,VWS V14.01,2013-07-01 16:39:00,
2013-07-01 11:44:00,79.3,45.2,27.17,North,357,0.0,0.0,30,0.00,,---,0.00,VWS V14.01,2013-07-01 16:44:00,
2013-07-01 11:49:00,79.0,44.9,27.17,North,357,0.0,0.0,30,0.00,,---,0.00,VWS V14.01,2013-07-01 16:49:00,
2013-07-01 11:54:00,76.1,43.3,27.17,North,357,2.7,2.7,31,0.00,,---,0.00,VWS V14.01,2013-07-01 16:54:00,
2013-07-01 11:59:00,81.3,47.0,27.14,SSE,164,3.1,4.0,30,0.00,,---,0.00,VWS V14.01,2013-07-01 16:59:00,
2013-07-01 12:04:00,83.7,48.1,27.14,ENE,65,2.2,3.6,29,0.00,,---,0.00,VWS V14.01,2013-07-01 17:04:00,
2013-07-01 12:09:00,83.7,48.1,27.14,NE,46,0.0,0.0,29,0.00,,---,0.00,VWS V14.01,2013-07-01 17:09:00,
2013-07-01 12:14:00,84.9,49.2,27.17,NNW,342,2.7,2.7,29,0.00,,---,0.00,VWS V14.01,2013-07-01 17:14:00,
2013-07-01 12:19:00,85.6,49.8,27.17,ENE,70,2.7,3.6,29,0.00,,---,0.00,VWS V14.01,2013-07-01 17:19:00,
2013-07-01 12:24:00,86.2,50.2,27.17,NNW,342,3.1,3.1,29,0.00,,---,0.00,VWS V14.01,2013-07-01 17:24:00,
2013-07-01 12:29:00,83.8,48.2,27.17,West,278,3.1,3.1,29,0.00,,---,0.00,VWS V14.01,2013-07-01 17:29:00,
2013-07-01 12:34:00,86.0,50.1,27.17,NNE,14,4.0,4.0,29,0.00,,---,0.00,VWS V14.01,2013-07-01 17:34:00,
2013-07-01 12:39:00,84.4,48.7,27.17,North,7,2.7,2.7,29,0.00,,---,0.00,VWS V14.01,2013-07-01 17:39:00,
2013-07-01 12:44:00,84.2,48.5,27.14,East,95,0.0,2.2,29,0.00,,---,0.00,VWS V14.01,2013-07-01 17:44:00,
2013-07-01 12:49:00,83.1,47.6,27.14,NE,38,2.2,2.2,29,0.00,,---,0.00,VWS V14.01,2013-07-01 17:49:00,
2013-07-01 12:54:00,80.1,45.9,27.14,ENE,60,3.6,3.6,30,0.00,,---,0.00,VWS V14.01,2013-07-01 17:54:00,
2013-07-01 12:59:00,81.9,47.4,27.14,NW,319,2.7,4.0,30,0.00,,---,0.00,VWS V14.01,2013-07-01 17:59:00,
2013-07-01 13:04:00,80.8,46.5,27.14,East,80,2.7,3.6,30,0.00,,---,0.00,VWS V14.01,2013-07-01 18:04:00,
2013-07-01 13:09:00,84.2,48.5,27.14,ENE,71,0.0,0.0,29,0.00,,---,0.00,VWS V14.01,2013-07-01 18:09:00,
2013-07-01 13:14:00,87.1,51.0,27.14,ESE,116,2.7,3.1,29,0.00,,---,0.00,VWS V14.01,2013-07-01 18:14:00,
2013-07-01 13:19:00,86.5,50.5,27.14,ENE,78,0.0,0.0,29,0.00,,---,0.00,VWS V14.01,2013-07-01 18:19:00,
2013-07-01 13:24:00,86.9,50.8,27.14,NNW,342,4.0,4.0,29,0.00,,---,0.00,VWS V14.01,2013-07-01 18:24:00,
2013-07-01 13:29:00,81.7,47.3,27.14,ENE,63,2.2,5.4,30,0.00,,---,0.00,VWS V14.01,2013-07-01 18:29:00,
2013-07-01 13:34:00,81.0,46.6,27.14,NE,47,0.0,0.0,30,0.00,,---,0.00,VWS V14.01,2013-07-01 18:34:00,
2013-07-01 13:39:00,84.6,48.8,27.14,NE,35,3.1,3.1,29,0.00,,---,0.00,VWS V14.01,2013-07-01 18:39:00,
2013-07-01 13:44:00,82.9,47.5,27.14,NNE,13,3.1,3.1,29,0.00,,---,0.00,VWS V14.01,2013-07-01 18:44:00,
2013-07-01 13:49:00,80.4,46.2,27.14,NE,48,3.1,4.9,30,0.00,,---,0.00,VWS V14.01,2013-07-01 18:49:00,
2013-07-01 13:54:00,82.2,47.7,27.14,NE,47,2.2,3.6,30,0.00,,---,0.00,VWS V14.01,2013-07-01 18:54:00,
2013-07-01 13:59:00,83.3,47.8,27.14,ENE,77,0.0,0.0,29,0.00,,---,0.00,VWS V14.01,2013-07-01 18:59:00,
2013-07-01 14:04:00,83.3,47.8,27.14,NNW,337,2.7,3.1,29,0.00,,---,0.00,VWS V14.01,2013-07-01 19:04:00,
2013-07-01 14:09:00,84.7,49.0,27.14,NE,38,0.0,3.1,29,0.00,,---,0.00,VWS V14.01,2013-07-01 19:09:00,
2013-07-01 14:14:00,87.1,51.0,27.14,ESE,121,0.0,2.7,29,0.00,,---,0.00,VWS V14.01,2013-07-01 19:14:00,
2013-07-01 14:19:00,86.4,50.4,27.14,NNE,23,2.7,2.7,29,0.00,,---,0.00,VWS V14.01,2013-07-01 19:19:00,
2013-07-01 14:24:00,84.6,48.8,27.14,NE,47,3.6,5.4,29,0.00,,---,0.00,VWS V14.01,2013-07-01 19:24:00,
2013-07-01 14:29:00,86.2,50.2,27.14,NE,56,0.0,2.2,29,0.00,,---,0.00,VWS V14.01,2013-07-01 19:29:00,
2013-07-01 14:34:00,85.8,49.9,27.14,NNE,22,2.7,3.1,29,0.00,,---,0.00,VWS V14.01,2013-07-01 19:34:00,
2013-07-01 14:39:00,82.2,47.7,27.14,NNE,31,3.6,3.6,30,0.00,,---,0.00,VWS V14.01,2013-07-01 19:39:00,
2013-07-01 14:44:00,83.8,48.2,27.14,NE,52,2.2,2.7,29,0.00,,---,0.00,VWS V14.01,2013-07-01 19:44:00,
2013-07-01 14:49:00,81.9,47.4,27.14,NE,39,4.0,4.0,30,0.00,,---,0.00,VWS V14.01,2013-07-01 19:49:00,
2013-07-01 14:54:00,82.6,47.1,27.14,ENE,61,0.0,2.7,29,0.00,,---,0.00,VWS V14.01,2013-07-01 19:54:00,
2013-07-01 14:59:00,86.5,50.5,27.14,ESE,110,2.2,2.2,29,0.00,,---,0.00,VWS V14.01,2013-07-01 19:59:00,
2013-07-01 15:04:00,86.9,50.8,27.14,ENE,69,2.7,4.5,29,0.00,,---,0.00,VWS V14.01,2013-07-01 20:04:00,
2013-07-01 15:09:00,88.2,51.0,27.14,NNE,25,2.7,2.7,28,0.00,,---,0.00,VWS V14.01,2013-07-01 20:09:00,
2013-07-01 15:14:00,88.7,51.4,27.11,North,353,2.7,3.1,28,0.00,,---,0.00,VWS V14.01,2013-07-01 20:14:00,
2013-07-01 15:19:00,86.9,50.8,27.11,NE,56,2.7,2.7,29,0.00,,---,0.00,VWS V14.01,2013-07-01 20:19:00,
2013-07-01 15:24:00,86.4,50.4,27.11,NNE,24,2.2,3.1,29,0.00,,---,0.00,VWS V14.01,2013-07-01 20:24:00,
2013-07-01 15:29:00,84.6,48.8,27.11,ENE,59,5.8,5.8,29,0.00,,---,0.00,VWS V14.01,2013-07-01 20:29:00,
2013-07-01 15:34:00,87.1,51.0,27.11,ENE,66,3.1,3.1,29,0.00,,---,0.00,VWS V14.01,2013-07-01 20:34:00,
2013-07-01 15:39:00,85.6,49.8,27.11,ENE,68,2.7,2.7,29,0.00,,---,0.00,VWS V14.01,2013-07-01 20:39:00,
2013-07-01 15:44:00,86.9,50.8,27.11,ENE,59,2.2,3.6,29,0.00,,---,0.00,VWS V14.01,2013-07-01 20:44:00,
2013-07-01 15:49:00,88.5,51.3,27.11,ENE,61,0.0,2.2,28,0.00,,---,0.00,VWS V14.01,2013-07-01 20:49:00,
2013-07-01 15:54:00,87.1,51.0,27.11,ENE,62,2.7,2.7,29,0.00,,---,0.00,VWS V14.01,2013-07-01 20:54:00,
2013-07-01 15:59:00,82.9,47.5,27.11,ENE,75,2.7,2.7,29,0.00,,---,0.00,VWS V14.01,2013-07-01 20:59:00,
2013-07-01 16:04:00,81.9,47.4,27.11,NE,52,0.0,0.0,30,0.00,,---,0.00,VWS V14.01,2013-07-01 21:04:00,
2013-07-01 16:09:00,85.6,49.8,27.11,ENE,64,2.2,3.1,29,0.00,,---,0.00,VWS V14.01,2013-07-01 21:09:00,
2013-07-01 16:14:00,82.4,47.0,27.11,ENE,75,2.7,2.7,29,0.00,,---,0.00,VWS V14.01,2013-07-01 21:14:00,
2013-07-01 16:19:00,82.8,47.3,27.11,NE,47,0.0,0.0,29,0.00,,---,0.00,VWS V14.01,2013-07-01 21:19:00,
2013-07-01 16:24:00,81.9,47.4,27.11,NNE,18,4.9,5.4,30,0.00,,---,0.00,VWS V14.01,2013-07-01 21:24:00,
2013-07-01 16:29:00,83.8,48.2,27.11,NE,54,2.7,2.7,29,0.00,,---,0.00,VWS V14.01,2013-07-01 21:29:00,
2013-07-01 16:34:00,84.6,48.8,27.11,ESE,104,0.0,2.2,29,0.00,,---,0.00,VWS V14.01,2013-07-01 21:34:00,
2013-07-01 16:39:00,86.7,50.7,27.11,ENE,68,2.7,2.7,29,0.00,,---,0.00,VWS V14.01,2013-07-01 21:39:00,
2013-07-01 16:44:00,84.2,48.5,27.11,NNE,32,4.0,5.4,29,0.00,,---,0.00,VWS V14.01,2013-07-01 21:44:00,
2013-07-01 16:49:00,84.0,48.4,27.11,NE,53,2.2,2.7,29,0.00,,---,0.00,VWS V14.01,2013-07-01 21:49:00,
2013-07-01 16:54:00,84.0,48.4,27.11,ENE,61,2.7,2.7,29,0.00,,---,0.00,VWS V14.01,2013-07-01 21:54:00,
2013-07-01 16:59:00,83.5,47.9,27.11,NNE,17,5.8,5.8,29,0.00,,---,0.00,VWS V14.01,2013-07-01 21:59:00,
2013-07-01 17:04:00,84.2,48.5,27.11,ENE,62,0.0,5.4,29,0.00,,---,0.00,VWS V14.01,2013-07-01 22:04:00,
2013-07-01 17:09:00,83.8,48.2,27.11,ENE,66,2.2,2.7,29,0.00,,---,0.00,VWS V14.01,2013-07-01 22:09:00,
2013-07-01 17:14:00,83.3,47.8,27.11,ENE,61,0.0,2.2,29,0.00,,---,0.00,VWS V14.01,2013-07-01 22:14:00,
2013-07-01 17:19:00,83.3,47.8,27.11,East,93,0.0,0.0,29,0.00,,---,0.00,VWS V14.01,2013-07-01 22:19:00,
2013-07-01 17:24:00,85.3,49.5,27.11,East,93,0.0,0.0,29,0.00,,---,0.00,VWS V14.01,2013-07-01 22:24:00,
2013-07-01 17:29:00,85.3,49.5,27.11,ENE,75,3.1,3.1,29,0.00,,---,0.00,VWS V14.01,2013-07-01 22:29:00,
2013-07-01 17:34:00,86.4,50.4,27.11,ESE,113,3.1,3.1,29,0.00,,---,0.00,VWS V14.01,2013-07-01 22:34:00,
2013-07-01 17:39:00,86.5,50.5,27.11,East,89,0.0,0.0,29,0.00,,---,0.00,VWS V14.01,2013-07-01 22:39:00,
2013-07-01 17:44:00,87.1,51.0,27.11,ENE,76,0.0,0.0,29,0.00,,---,0.00,VWS V14.01,2013-07-01 22:44:00,
2013-07-01 17:49:00,82.6,47.1,27.11,ENE,58,5.4,5.4,29,0.00,,---,0.00,VWS V14.01,2013-07-01 22:49:00,
2013-07-01 17:54:00,79.0,44.9,27.11,NE,48,3.1,3.1,30,0.00,,---,0.00,VWS V14.01,2013-07-01 22:54:00,
2013-07-01 17:59:00,78.6,45.5,27.11,ENE,63,0.0,0.0,31,0.00,,---,0.00,VWS V14.01,2013-07-01 22:59:00,
2013-07-01 18:04:00,76.3,43.5,27.11,NE,41,3.1,3.1,31,0.00,,---,0.00,VWS V14.01,2013-07-01 23:04:00,
2013-07-01 18:09:00,75.9,43.1,27.11,NE,43,0.0,0.0,31,0.00,,---,0.00,VWS V14.01,2013-07-01 23:09:00,
2013-07-01 18:14:00,75.6,42.8,27.11,NE,38,4.0,4.0,31,0.00,,---,0.00,VWS V14.01,2013-07-01 23:14:00,
2013-07-01 18:19:00,77.2,44.2,27.11,ENE,58,0.0,2.7,31,0.00,,---,0.00,VWS V14.01,2013-07-01 23:19:00,
2013-07-01 18:24:00,77.4,44.4,27.11,NE,52,2.2,3.1,31,0.00,,---,0.00,VWS V14.01,2013-07-01 23:24:00,
2013-07-01 18:29:00,77.2,44.2,27.11,ENE,58,0.0,0.0,31,0.00,,---,0.00,VWS V14.01,2013-07-01 23:29:00,
2013-07-01 18:34:00,79.0,44.9,27.11,ENE,58,0.0,0.0,30,0.00,,---,0.00,VWS V14.01,2013-07-01 23:34:00,
2013-07-01 18:39:00,80.4,46.2,27.11,ENE,58,0.0,0.0,30,0.00,,---,0.00,VWS V14.01,2013-07-01 23:39:00,
2013-07-01 18:44:00,80.8,46.5,27.11,NE,45,0.0,0.0,30,0.00,,---,0.00,VWS V14.01,2013-07-01 23:44:00,
2013-07-01 18:49:00,77.9,44.9,27.11,NE,46,0.0,0.0,31,0.00,,---,0.00,VWS V14.01,2013-07-01 23:49:00,
2013-07-01 18:54:00,76.6,43.8,27.11,ENE,57,0.0,0.0,31,0.00,,---,0.00,VWS V14.01,2013-07-01 23:54:00,
2013-07-01 18:59:00,77.2,44.2,27.11,ENE,57,0.0,0.0,31,0.00,,---,0.00,VWS V14.01,2013-07-01 23:59:00,
2013-07-01 19:04:00,79.3,45.2,27.11,ENE,57,0.0,0.0,30,0.00,,---,0.00,VWS V14.01,2013-07-02 00:04:00,
2013-07-01 19:09:00,80.8,46.5,27.11,ENE,57,0.0,0.0,30,0.00,,---,0.00,VWS V14.01,2013-07-02 00:09:00,
2013-07-01 19:14:00,81.9,47.4,27.11,NE,54,0.0,0.0,30,0.00,,---,0.00,VWS V14.01,2013-07-02 00:14:00,
2013-07-01 19:19:00,83.3,47.8,27.11,NE,54,0.0,0.0,29,0.00,,---,0.00,VWS V14.01,2013-07-02 00:19:00,
2013-07-01 19:24:00,84.9,49.2,27.11,NE,54,0.0,0.0,29,0.00,,---,0.00,VWS V14.01,2013-07-02 00:24:00,
2013-07-01 19:29:00,85.3,49.5,27.11,NE,54,0.0,0.0,29,0.00,,---,0.00,VWS V14.01,2013-07-02 00:29:00,
2013-07-01 19:34:00,84.7,49.0,27.11,NE,54,0.0,0.0,29,0.00,,---,0.00,VWS V14.01,2013-07-02 00:34:00,
2013-07-01 19:35:00,84.4,48.7,27.11,NE,54,0.0,0.0,29,0.00,,---,0.00,VWS V14.01,2013-07-02 00:35:00,
2013-07-01 19:40:00,83.3,47.8,27.11,NE,54,0.0,0.0,29,0.00,,---,0.00,VWS V14.01,2013-07-02 00:40:00,
2013-07-01 19:45:00,80.8,46.5,27.11,NE,54,0.0,0.0,30,0.00,,---,0.00,VWS V14.01,2013-07-02 00:45:00,
2013-07-01 19:50:00,78.3,45.2,27.11,East,91,0.0,0.0,31,0.00,,---,0.00,VWS V14.01,2013-07-02 00:50:00,
2013-07-01 19:55:00,78.1,45.0,27.11,East,87,0.0,0.0,31,0.00,,---,0.00,VWS V14.01,2013-07-02 00:55:00,
2013-07-01 20:00:00,77.9,44.9,27.11,East,87,0.0,0.0,31,0.00,,---,0.00,VWS V14.01,2013-07-02 01:00:00,
2013-07-01 20:04:00,77.0,44.1,27.11,East,87,0.0,0.0,31,0.00,,---,0.00,VWS V14.01,2013-07-02 01:04:00,
2013-07-01 20:09:00,74.8,42.2,27.11,East,87,0.0,0.0,31,0.00,,---,0.00,VWS V14.01,2013-07-02 01:09:00,
2013-07-01 20:15:00,73.9,41.4,27.11,East,87,0.0,0.0,31,0.00,,---,0.00,VWS V14.01,2013-07-02 01:15:00,
2013-07-01 20:19:00,73.0,41.5,27.11,East,87,0.0,0.0,32,0.00,,---,0.00,VWS V14.01,2013-07-02 01:19:00,
2013-07-01 20:24:00,72.0,40.5,27.11,East,87,0.0,0.0,32,0.00,,---,0.00,VWS V14.01,2013-07-02 01:24:00,
2013-07-01 20:29:00,71.4,40.0,27.11,East,87,0.0,0.0,32,0.00,,---,0.00,VWS V14.01,2013-07-02 01:29:00,
2013-07-01 20:34:00,70.7,39.4,27.11,East,87,0.0,0.0,32,0.00,,---,0.00,VWS V14.01,2013-07-02 01:34:00,
2013-07-01 20:40:00,69.8,38.6,27.11,East,87,0.0,0.0,32,0.00,,---,0.00,VWS V14.01,2013-07-02 01:40:00,
2013-07-01 20:45:00,69.8,38.6,27.11,East,87,0.0,0.0,32,0.00,,---,0.00,VWS V14.01,2013-07-02 01:45:00,
2013-07-01 20:50:00,69.4,39.1,27.11,East,87,0.0,0.0,33,0.00,,---,0.00,VWS V14.01,2013-07-02 01:50:00,
2013-07-01 20:55:00,68.5,38.3,27.11,East,87,0.0,0.0,33,0.00,,---,0.00,VWS V14.01,2013-07-02 01:55:00,
2013-07-01 21:00:00,67.3,37.2,27.11,East,87,0.0,0.0,33,0.00,,---,0.00,VWS V14.01,2013-07-02 02:00:00,
2013-07-01 21:05:00,66.4,36.4,27.11,East,87,0.0,0.0,33,0.00,,---,0.00,VWS V14.01,2013-07-02 02:05:00,
2013-07-01 21:10:00,65.8,36.0,27.11,East,87,0.0,0.0,33,0.00,,---,0.00,VWS V14.01,2013-07-02 02:10:00,
2013-07-01 21:15:00,65.7,35.8,27.11,East,87,2.2,2.7,33,0.00,,---,0.00,VWS V14.01,2013-07-02 02:15:00,
2013-07-01 21:20:00,65.1,35.3,27.11,East,87,0.0,0.0,33,0.00,,---,0.00,VWS V14.01,2013-07-02 02:20:00,
2013-07-01 21:25:00,64.9,35.2,27.11,NE,54,2.2,2.2,33,0.00,,---,0.00,VWS V14.01,2013-07-02 02:25:00,
2013-07-01 21:30:00,65.1,35.3,27.11,NE,50,0.0,2.2,33,0.00,,---,0.00,VWS V14.01,2013-07-02 02:30:00,
2013-07-01 21:35:00,65.3,35.5,27.11,NE,50,2.7,2.7,33,0.00,,---,0.00,VWS V14.01,2013-07-02 02:35:00,
2013-07-01 21:40:00,65.7,35.8,27.11,NE,51,2.7,2.7,33,0.00,,---,0.00,VWS V14.01,2013-07-02 02:40:00,
2013-07-01 21:45:00,64.9,35.2,27.11,ENE,58,2.2,2.7,33,0.00,,---,0.00,VWS V14.01,2013-07-02 02:45:00,
2013-07-01 21:50:00,63.5,34.7,27.11,ENE,58,0.0,0.0,34,0.00,,---,0.00,VWS V14.01,2013-07-02 02:50:00,
2013-07-01 21:55:00,63.3,34.5,27.11,ENE,58,0.0,0.0,34,0.00,,---,0.00,VWS V14.01,2013-07-02 02:55:00,
2013-07-01 22:00:00,63.3,34.5,27.11,NE,50,0.0,0.0,34,0.00,,---,0.00,VWS V14.01,2013-07-02 03:00:00,
2013-07-01 22:05:00,63.3,34.5,27.11,NE,50,0.0,0.0,34,0.00,,---,0.00,VWS V14.01,2013-07-02 03:05:00,
2013-07-01 22:10:00,63.1,34.3,27.11,NE,50,0.0,0.0,34,0.00,,---,0.00,VWS V14.01,2013-07-02 03:10:00,
2013-07-01 22:15:00,63.1,34.3,27.11,NE,50,0.0,0.0,34,0.00,,---,0.00,VWS V14.01,2013-07-02 03:15:00,
2013-07-01 22:20:00,62.2,33.5,27.11,NE,50,0.0,0.0,34,0.00,,---,0.00,VWS V14.01,2013-07-02 03:20:00,
2013-07-01 22:25:00,60.8,32.3,27.11,NE,50,0.0,0.0,34,0.00,,---,0.00,VWS V14.01,2013-07-02 03:25:00,
2013-07-01 22:30:00,60.1,32.4,27.11,NE,50,0.0,0.0,35,0.00,,---,0.00,VWS V14.01,2013-07-02 03:30:00,
2013-07-01 22:35:00,61.3,32.8,27.11,NE,50,0.0,0.0,34,0.00,,---,0.00,VWS V14.01,2013-07-02 03:35:00,
2013-07-01 22:40:00,61.7,33.1,27.11,NE,50,2.7,2.7,34,0.00,,---,0.00,VWS V14.01,2013-07-02 03:40:00,
2013-07-01 22:45:00,61.7,33.1,27.11,NE,45,0.0,0.0,34,0.00,,---,0.00,VWS V14.01,2013-07-02 03:45:00,
2013-07-01 22:50:00,60.1,32.4,27.11,NE,45,0.0,0.0,35,0.00,,---,0.00,VWS V14.01,2013-07-02 03:50:00,
2013-07-01 22:55:00,59.4,31.7,27.11,NE,45,0.0,0.0,35,0.00,,---,0.00,VWS V14.01,2013-07-02 03:55:00,
2013-07-01 23:00:00,58.5,30.9,27.14,NE,45,0.0,0.0,35,0.00,,---,0.00,VWS V14.01,2013-07-02 04:00:00,
2013-07-01 23:01:00,58.3,30.8,27.14,NE,45,0.0,0.0,35,0.00,,---,0.00,VWS V14.01,2013-07-02 04:01:00,
2013-07-01 23:06:00,57.6,30.1,27.14,NE,45,0.0,0.0,35,0.00,,---,0.00,VWS V14.01,2013-07-02 04:06:00,
2013-07-01 23:11:00,57.6,30.1,27.14,NE,45,0.0,0.0,35,0.00,,---,0.00,VWS V14.01,2013-07-02 04:11:00,
2013-07-01 23:16:00,57.0,29.7,27.11,NE,45,0.0,0.0,35,0.00,,---,0.00,VWS V14.01,2013-07-02 04:16:00,
2013-07-01 23:21:00,57.2,29.8,27.11,NE,45,0.0,0.0,35,0.00,,---,0.00,VWS V14.01,2013-07-02 04:21:00,
2013-07-01 23:26:00,57.0,29.7,27.11,NE,45,0.0,0.0,35,0.00,,---,0.00,VWS V14.01,2013-07-02 04:26:00,
2013-07-01 23:31:00,57.9,30.5,27.11,NE,45,0.0,0.0,35,0.00,,---,0.00,VWS V14.01,2013-07-02 04:31:00,
2013-07-01 23:36:00,57.4,30.0,27.11,NE,44,0.0,0.0,35,0.00,,---,0.00,VWS V14.01,2013-07-02 04:36:00,
2013-07-01 23:41:00,57.0,29.7,27.11,NE,44,0.0,0.0,35,0.00,,---,0.00,VWS V14.01,2013-07-02 04:41:00,
2013-07-01 23:46:00,56.7,29.3,27.11,NE,44,0.0,0.0,35,0.00,,---,0.00,VWS V14.01,2013-07-02 04:46:00,
2013-07-01 23:51:00,56.5,29.2,27.11,NE,44,0.0,0.0,35,0.00,,---,0.00,VWS V14.01,2013-07-02 04:51:00,
2013-07-01 23:56:00,56.3,29.0,27.11,NE,44,0.0,0.0,35,0.00,,---,0.00,VWS V14.01,2013-07-02 04:56:00,